Location: Adams Chapel School
(35.0406°N, 88.5950°W)
Time: 00:48:39
(UTC+00:00)

Daily predictions for brighter satellites

Satellite Brightness Start Highest point End
(mag) Time Altitude Azimuth Time Altitude Azimuth Time Altitude Azimuth
Shenzhou-11 Module 1.6 00:03:10 10° WSW 00:05:51 78° SSE 00:07:21 23° ENE
SL-8 R/B 3.7 00:02:14 10° SW 00:07:03 82° SE 00:10:51 16° NE
COSMOS 2428 3.0 00:02:27 10° NNW 00:08:11 74° WSW 00:13:52 10° SSE
Cosmos 44 3.7 00:04:38 10° S 00:09:01 39° ESE 00:12:06 17° NE
Nadezhda 3 Rocket 4.1 00:03:02 10° N 00:09:20 83° W 00:15:40 10° S
Cosmos 1269 Rocket 4.2 00:06:20 10° N 00:11:26 48° ENE 00:16:31 10° SE
Cosmos 1048 Rocket 4.4 00:07:52 10° NNW 00:12:56 65° WSW 00:17:59 10° S
NOSS 0 Rocket 3.9 00:08:20 10° NNW 00:14:33 70° ENE 00:20:42 10° SSE
CZ-2D R/B 3.8 00:14:27 10° SE 00:17:55 34° ENE 00:21:25 10° N
SKYMED 2 4.4 00:17:51 10° N 00:22:05 52° WNW 00:26:16 10° SSW
Cosmos 2341 Rocket 4.2 00:18:19 10° S 00:24:42 82° W 00:31:06 10° N
BREEZE-M DEB (TANK) 3.4 00:19:20 10° SW 00:24:46 57° SE 00:25:52 33° ENE
SL-8 Rocket 3.9 00:19:40 10° S 00:25:57 73° E 00:32:14 10° N
Atlas Centaur 2 3.3 00:21:46 10° SSW 00:26:01 28° SSE 00:29:10 18° ESE
USA 116 3.5 00:30:23 10° N 00:33:32 64° WNW 00:36:35 10° SSW
CSL-04 Debris 4.0 00:28:44 10° SSE 00:34:06 75° ENE 00:39:29 10° N
YAOGAN 1 2.5 00:32:05 10° SSE 00:36:23 88° ENE 00:40:44 10° NNW
Cosmos 1328 3.7 00:32:52 10° S 00:36:50 64° E 00:39:30 20° NNE
Meteor 2-10 Rocket 3.6 00:32:54 10° N 00:38:05 53° ENE 00:43:03 10° SSE
Ariane Rocket 3.5 00:37:15 10° SE 00:41:49 35° ENE 00:46:25 10° N
Centaur AC-112 4.0 00:42:45 10° SSW 00:44:05 15° SSE 00:44:05 15° SSE
Cosmos 1455 2.0 00:41:09 10° N 00:44:56 63° E 00:48:40 10° SSE
ADEOS Rocket 3.3 00:41:19 10° NNE 00:48:00 66° ESE 00:55:20 10° S
Cosmos-2242 3.0 00:45:29 10° N 00:49:48 81° W 00:54:04 10° S
Meteor 1-11 4.1 00:49:05 10° S 00:54:38 63° E 00:58:13 22° NNE
Cosmos 2237 Rocket 2.2 00:50:01 10° NNW 00:55:39 78° WSW 01:01:15 10° SSE
SL-08 R/B 4.4 00:49:53 10° S 00:56:03 69° E 01:02:22 10° NNE
H-2A ROCKET BODY 2.6 00:49:25 10° W 00:56:13 32° SSW 00:57:21 26° SSE
Cosmos 2218 Rocket 4.2 00:51:13 10° SSW 00:57:29 75° W 01:03:53 10° N
Cosmos 1939 Rocket 3.1 00:53:52 10° S 00:57:42 67° W 01:01:36 10° NNW
Cosmos 1821 Rocket 4.5 00:52:32 10° SSE 00:57:38 37° ESE 00:57:38 37° ESE
CSL-04 Rocket 4.2 00:56:51 10° S 01:02:13 61° WSW 01:07:42 10° NNW
ISS -1.7 01:09:12 10° W 01:11:37 24° NW 01:11:37 24° NW
SL-16 R/B 2.7 01:11:09 10° NNW 01:15:08 41° NNE 01:15:08 41° NNE
DELTA 2 R/B (1) 3.8 01:12:06 10° W 01:17:35 53° N 01:17:54 53° N
Cosmos 2082 4.3 01:13:44 10° SW 01:19:11 53° WNW 01:22:26 24° N
CZ-4 R/B 4.4 01:23:25 10° SW 01:25:54 16° W 01:28:24 10° NW
Cosmos 2297 Rocket 4.3 01:26:30 10° WSW 01:30:54 23° WNW 01:35:20 10° N
Cosmos 2227 Rocket 4.4 01:39:05 10° WSW 01:43:10 20° WNW 01:47:17 10° N
Atlas Centaur 2 3.8 02:09:02 10° WSW 02:11:46 30° SW 02:11:46 30° SW
FALCON 9 R/B 4.1 02:31:37 10° WSW 02:38:39 34° WSW 02:38:39 34° WSW
Cosmos 2344 3.9 09:48:54 57° ENE 09:48:54 57° ENE 09:55:07 10° NE
CZ-3 R/B 3.7 09:46:37 51° SW 09:52:42 66° S 10:01:53 10° E
Cosmos 2297 Rocket 3.0 10:29:59 41° SSE 10:29:59 41° SSE 10:33:33 10° SSE
CZ-3A R/B 3.9 10:29:40 37° SSW 10:32:34 48° SSE 11:03:52 10° ESE
Cosmos 2360 4.1 10:38:00 83° ESE 10:38:01 83° ESE 10:43:47 10° NNE
Cosmos 2227 Rocket 2.5 10:41:28 52° S 10:41:28 52° S 10:45:43 10° SSE
Cosmos 2074 Rocket 3.8 10:40:58 65° NNW 10:41:56 83° W 10:48:09 10° S
USA 215 4.3 10:38:41 10° E 10:44:31 36° NE 10:47:53 22° NNW
Cosmos 44 Rocket 4.4 10:45:42 33° NNE 10:46:53 39° ENE 10:51:21 10° SE
Cosmos 2278 3.7 10:54:19 61° NW 10:54:19 61° NW 10:59:27 10° NNE
Cosmos 1726 4.2 10:52:38 10° SSE 10:55:47 27° E 10:58:56 10° NNE
SL-4 R/B 4.2 10:56:05 14° NNE 10:56:05 14° NNE 10:57:49 10° ENE
STARLINK-44 4.5 11:00:31 40° NNE 11:00:31 40° NNE 11:03:12 10° NE
STARLINK-36 4.4 11:03:41 41° NNE 11:03:41 41° NNE 11:06:30 10° NE
STARLINK-63 4.4 11:07:03 39° NNE 11:07:03 39° NNE 11:09:51 10° NE
SL-16 R/B 4.0 11:01:50 10° SSE 11:06:44 31° ESE 11:11:39 10° NE
STARLINK-35 4.2 11:08:27 43° N 11:08:27 43° N 11:11:25 10° NE
Cosmos 1602 Rocket 3.5 11:08:13 61° SW 11:08:13 61° SW 11:11:58 10° S
Lacrosse 5 4.1 11:03:38 10° S 11:07:42 24° ESE 11:11:45 10° ENE
STARLINK-51 4.2 11:10:03 43° N 11:10:03 43° N 11:13:04 10° NE
ATLAS 2AS CENTAUR R/B 3.1 11:01:33 10° SSW 11:09:24 81° ESE 11:17:27 10° NNE
STARLINK-30 4.2 11:11:39 43° N 11:11:39 43° N 11:14:42 10° NE
STARLINK-72 4.2 11:13:15 42° N 11:13:15 42° N 11:16:21 10° NE
SKYMED 2 3.6 11:09:05 10° SSE 11:13:25 80° ENE 11:16:27 19° N
STARLINK-50 4.1 11:14:50 42° N 11:14:50 42° N 11:18:00 10° NE
STARLINK-59 4.2 11:16:36 40° N 11:16:36 40° N 11:19:44 10° NE
STARLINK-56 4.1 11:18:01 42° NNW 11:18:01 42° NNW 11:21:18 10° NE
Starlink (trailer) 4.1 11:19:36 41° NNW 11:19:36 41° NNW 11:22:55 10° NNE
Cosmos 923 Rocket 4.2 11:14:28 10° S 11:19:41 74° ESE 11:24:58 10° NNE
STARLINK-38 4.1 11:21:12 40° NNW 11:21:12 40° NNW 11:24:34 10° NNE
STARLINK-41 4.2 11:22:04 36° N 11:22:04 36° N 11:25:01 10° NNE
STARLINK-65 4.1 11:22:46 40° NNW 11:22:46 40° NNW 11:26:11 10° NNE
Cosmos 1980 Rocket 2.3 11:19:29 23° SW 11:22:48 50° WNW 11:28:19 10° N
CZ-4B R/B 3.8 11:18:25 10° NNE 11:23:53 59° ESE 11:29:12 10° S
STARLINK-53 4.2 11:24:32 37° NNW 11:24:32 37° NNW 11:27:54 10° NNE
USA 238 DEB 4.1 11:18:03 13° NNW 11:24:34 70° ENE 11:32:00 10° SE
USA 238 4.1 11:18:08 13° NNW 11:24:40 70° ENE 11:32:06 10° SE
Cosmos 1758 Rocket 3.7 11:20:17 10° N 11:24:41 73° E 11:29:05 10° SSE
Cosmos 2341 Rocket 4.2 11:19:34 10° N 11:25:50 75° E 11:32:02 10° SSE
ALOS 2.1 11:21:37 10° N 11:26:14 65° WNW 11:30:51 10° SSW
Nadezhda 1 Rocket 4.3 11:20:51 10° SSW 11:26:28 39° WNW 11:32:08 10° N
PAYLOAD B 4.2 11:21:15 10° NNE 11:26:54 87° ESE 11:32:29 10° SSW
FENGYUN 3A 3.5 11:21:46 10° N 11:27:10 72° WNW 11:32:32 10° SSW
STARLINK 4.1 11:28:53 37° NNW 11:28:53 37° NNW 11:32:12 10° NNE
Cosmos 1953 2.5 11:26:03 10° SSW 11:29:54 45° W 11:33:49 10° N
Cosmos 1697 Rocket 4.0 11:32:25 20° NW 11:32:25 20° NW 11:35:16 10° N
Okean O Rocket 1.8 11:28:05 10° NNE 11:32:32 76° ESE 11:36:57 10° S
STARLINK 1029 4.1 11:30:15 14° SSW 11:32:40 41° SE 11:35:38 10° ENE
Meteor 2-17 Rocket 4.3 11:29:32 10° NNW 11:35:34 69° W 11:41:33 10° S
COSMOS 2455 3.1 11:32:30 14° SW 11:37:16 44° WNW 11:43:00 10° NNE
STARLINK-58 4.4 11:37:10 30° NW 11:37:21 31° NW 11:40:58 10° NNE
STARLINK-62 4.5 11:38:53 29° NW 11:39:06 29° NW 11:42:39 10° NNE
USA 32 4.1 11:36:39 10° N 11:41:55 84° E 11:47:09 10° S
Cosmos 2058 Rocket 3.4 11:40:36 10° S 11:44:57 68° E 11:49:20 10° NNE
BREEZE-M DEB (TANK) 3.6 11:38:45 19° WNW 11:45:10 46° WSW 11:48:31 10° SSE
STARLINK 1028 2.7 11:45:15 18° SW 11:47:17 77° SE 11:50:12 10° NE
STARLINK 1021 2.7 11:45:27 18° SW 11:47:29 78° SE 11:50:24 10° NE
Meteor 1-21 Rocket 4.3 11:41:50 10° NNW 11:47:38 60° W 11:53:25 10° S
STARLINK 1019 2.7 11:45:43 18° SW 11:47:44 78° SE 11:50:37 10° NE
STARLINK 1012 2.7 11:45:54 17° SW 11:47:57 79° SE 11:50:51 10° NE
STARLINK 1010 2.7 11:46:05 17° SW 11:48:09 79° SE 11:51:04 10° NE
STARLINK 1026 2.7 11:46:19 17° SW 11:48:23 80° SE 11:51:17 10° NE
STARLINK 1013 2.7 11:46:31 17° SW 11:48:36 81° SE 11:51:31 10° NE
STARLINK 1009 2.7 11:46:45 17° SW 11:48:51 81° SE 11:51:45 10° NE
STARLINK 1015 2.7 11:46:59 17° SW 11:49:04 82° SE 11:51:59 10° NE
STARLINK 1016 2.6 11:47:12 17° SW 11:49:17 82° SE 11:52:12 10° NE
STARLINK 1008 2.6 11:47:24 17° SW 11:49:31 83° SE 11:52:26 10° NE
STARLINK 1025 2.6 11:47:51 17° SW 11:49:57 84° SE 11:52:52 10° NE
Cosmos 1825 Rocket 3.5 11:45:46 10° NNW 11:50:04 63° W 11:54:21 10° S
STARLINK 1017 2.6 11:48:03 17° SW 11:50:11 85° SE 11:53:07 10° NE
STARLINK 1023 2.6 11:48:16 17° SW 11:50:24 85° SE 11:53:20 10° NE
STARLINK 1007 2.6 11:48:30 16° SW 11:50:39 86° SE 11:53:34 10° NE
STARLINK 1048 2.6 11:48:43 16° SW 11:50:53 86° SE 11:53:48 10° NE
STARLINK 1049 2.6 11:48:55 16° SW 11:51:06 87° SE 11:54:00 10° NE
STARLINK 1014 2.6 11:49:04 16° SW 11:51:18 87° SE 11:54:15 10° NE
STARLINK 1051 2.6 11:49:08 16° SW 11:51:18 88° ESE 11:54:13 10° NE
BREEZE-M DEB (TANK) 2.0 11:52:09 32° W 11:52:47 41° SW 11:54:47 10° SSE
RESURS DK-1 4.5 11:49:15 10° SSE 11:52:52 30° ESE 11:56:31 10° NE
SEDSat Delta rocket 4.1 11:49:06 18° W 11:53:27 52° SSW 11:58:40 10° ESE
